Orbital Elements
Epoch 2022 Aug. 9.0 TT = JDT 2459800.5
T 2022 Oct. 29.34848 TT Rudenko
q 2.1752677 (2000.0) P Q
n 0.13268790 Peri. 12.05650 +0.81208241 -0.56770757
a 3.8069909 Node 24.11178 +0.50416931 +0.56607821
e 0.4286123 Incl. 19.29976 +0.29382897 +0.59771530
P 7.43
From 252 observations 2000 Sept. 24-2022 Sept. 4, mean residual 0".7.
|